Regional Weather Roundup
Issued by NWS Goodland, KS

Home | Current Version | Previous Version | Text Only | Print | Product List | Glossary On
Versions: 1 2 3 4 5 6 7 8 9 10 11 12 13 14 15 16 17 18 19 20 21 22 23 24 25 26 27 28 29 30 31 32 33 34 35 36 37 38 39 40 41 42 43 44 45 46 47 48 49 50
000
ASUS43 KGLD 020108
RWRGLD

GOODLAND FORECAST AREA HOURLY WEATHER ROUNDUP
NATIONAL WEATHER SERVICE GOODLAND KS
700 PM MDT SUN MAY 01 2016

...OFFICIAL OBSERVATIONS...

CITY           SKY/WX    TMP DP  RH WIND       PRES   REMARKS
GOODLAND KS    CLOUDY    46  31  55 N14       30.21S
HILL CITY KS   CLOUDY    48  40  73 NE7       30.20S
IMPERIAL NEB   MOCLDY    47  33  58 N9        30.23S
MCCOOK NEB     CLOUDY    50  37  61 E5        30.19S
AKRON CO       CLEAR     38  29  70 NE9       30.26S
BURLINGTON CO  CLOUDY    44  31  60 N14       30.23S
LIMON CO       CLEAR     36  28  73 NW8       30.26F
$$

...UNOFFICIAL OBSERVATIONS...

CITY           SKY/WX    TMP DP  RH WIND       PRES   REMARKS
COLBY KS       CLOUDY    48  41  76 NE7       30.21R
LENORA KS        N/A     47  32  56 MISG        N/A
NORTON KS      CLOUDY    48  37  66 E3        30.19S
SHARON SPRINGS   N/A     46  37  71 N5G12       N/A
KIT CARSON CO    N/A     44  30  57 MISG        N/A
YUMA CO          N/A     44  32  62 NE5G12      N/A
$$




USA.gov is the U.S. government's official web portal to all federal, state and local government web resources and services.